Location: NJAA Observatory
(40.6819°N, 74.8979°W)
Time: 21:47:57
(UTC-05:00)

Cosmos 2263 Rocket - Visible Passes

Search period start: 03 March 2015 00:00
Search period end: 13 March 2015 01:00
Orbit: 823 x 850 km, 71.0° (Epoch: 01 March)

Date Brightness Start Highest point End Pass type
(mag) Time Alt. Az. Time Alt. Az. Time Alt. Az.
03 Mar 4.4 03:14:22 17° ESE 03:15:49 19° E 03:19:51 10° NE visible
03 Mar 2.2 04:56:07 25° SW 04:59:20 58° WNW 05:04:59 10° NNE visible
04 Mar 4.5 02:58:57 18° ESE 02:59:13 18° E 03:02:59 10° ENE visible
04 Mar 2.2 04:40:41 40° SW 04:42:41 63° WNW 04:48:21 10° NNE visible
05 Mar 4.6 02:43:21 16° E 02:43:21 16° E 02:46:07 10° ENE visible
05 Mar 2.1 04:25:06 58° WSW 04:26:01 69° WNW 04:31:44 10° NNE visible
06 Mar 4.8 02:27:39 13° E 02:27:39 13° E 02:29:10 10° ENE visible
06 Mar 2.0 04:09:22 75° WNW 04:09:23 75° WNW 04:15:06 10° NNE visible
06 Mar 4.0 05:51:50 10° WNW 05:54:28 13° NW 05:56:50 10° NNW visible
07 Mar 5.0 02:11:49 11° ENE 02:11:49 11° ENE 02:12:10 10° ENE visible
07 Mar 2.3 03:53:32 66° N 03:53:32 66° N 03:58:28 10° NNE visible
07 Mar 4.0 05:35:15 11° WNW 05:37:44 14° NW 05:40:27 10° NNW visible
08 Mar 2.8 04:37:37 51° NNE 04:37:37 51° NNE 04:41:50 10° NNE visible
08 Mar 3.9 06:19:20 13° WNW 06:21:00 15° NW 06:24:01 10° NNW visible
09 Mar 3.3 04:21:38 40° NNE 04:21:38 40° NNE 04:25:11 10° NNE visible
09 Mar 3.8 06:03:20 15° WNW 06:04:16 16° NW 06:07:34 10° NNW visible
10 Mar 3.7 04:05:35 32° NNE 04:05:35 32° NNE 04:08:32 10° NNE visible
10 Mar 3.8 05:47:17 17° NW 05:47:33 17° NW 05:51:05 10° N visible
11 Mar 4.0 03:49:29 26° NNE 03:49:29 26° NNE 03:51:53 10° NNE visible
11 Mar 3.8 05:31:11 18° NW 05:31:11 18° NW 05:34:36 10° N visible
12 Mar 4.3 03:33:20 22° NNE 03:33:20 22° NNE 03:35:13 10° NNE visible
12 Mar 3.9 05:15:02 19° NW 05:15:02 19° NW 05:18:05 10° N visible
